[[{"header":{"parameterUnit":"m.s-1","parameterCategory":1,"la1":30.2991,"la2":30.254,"lo1":-89.0895,"lo2":-89.0444,"dy":0.0017,"dx":0.0017,"nx":28,"ny":28,"refTime":"2023-11-08T09:00:00:Z","depth":0,"parameterNumber":2,"parameterNumberName":"U-component_of_WINDS"},"data":[0,0,0,0,0,0,0,0,0,0,0,0,0,0,0,0,0,0,0,0,0,0,0,0,0,0,0,0,0,0,0,0,0,0,0,0,0,0,0,0,0,0,0,0,0,0,0,0,0,0,0,0,0,0,0,0,0,0,-0.7388,-0.7387,0,-0.734,-0.734,-0.7339,-0.7313,-0.7313,-0.7313,-0.7313,-0.7261,-0.726,-0.7258,0,0,0,0,0,0,0,0,0,0,0,0,0,-0.7451,-0.745,-0.7388,-0.7387,-0.7386,-0.734,-0.734,-0.7339,-0.7313,-0.7313,-0.7313,-0.7313,-0.7261,-0.726,-0.7258,0,0,0,0,0,0,0,0,0,0,0,0,0,-0.7416,-0.745,-0.7388,-0.7368,-0.7366,-0.734,-0.734,-0.7339,-0.7313,-0.7313,-0.7313,-0.7313,-0.7262,-0.726,-0.7258,-0.7247,0,0,-0.7252,-0.7251,0,0,0,0,0,0,0,0,-0.7418,-0.7413,-0.7372,-0.7369,-0.7367,-0.7333,-0.7343,-0.7308,-0.7313,-0.7333,-0.7313,-0.7313,-0.7285,-0.7281,-0.7272,-0.7245,-0.7242,-0.7252,-0.725,-0.725,-0.7249,0,0,0,0,0,0,0,-0.742,-0.7415,-0.7369,-0.7371,-0.7368,-0.736,-0.7355,-0.7336,-0.731,-0.7331,-0.733,-0.7324,-0.7283,-0.7274,-0.7271,-0.7242,-0.7252,-0.725,-0.7249,-0.7248,-0.7201,-0.7201,0,0,0,0,0,0,-0.7426,-0.7417,-0.737,-0.7367,-0.7393,-0.7359,-0.7353,-0.7344,-0.731,-0.7305,-0.7325,-0.7323,-0.7277,-0.7273,-0.7269,-0.7252,-0.725,-0.7248,-0.7247,-0.7201,-0.7201,-0.7201,0,0,0,0,0,0,-0.7428,-0.7422,-0.7372,-0.7392,-0.7385,-0.7358,-0.7347,-0.7343,-0.7333,-0.7305,-0.73,-0.732,-0.7277,-0.7271,-0.7252,-0.725,-0.7247,-0.7245,-0.7201,-0.7201,-0.7201,-0.7221,0,0,0,0,0,0,-0.743,-0.7423,-0.742,-0.7392,-0.7384,-0.7358,-0.7347,-0.7342,-0.733,-0.7329,-0.7299,-0.7294,-0.7277,-0.7256,-0.725,-0.7248,-0.7243,-0.7201,-0.7201,-0.7201,-0.722,-0.7222,-0.7223,0,0,0,0,0,-0.7432,-0.7427,-0.742,-0.7414,-0.738,-0.7358,-0.7354,-0.7335,-0.733,-0.7326,-0.7307,-0.7295,-0.7251,-0.7254,-0.7248,-0.7244,-0.7201,-0.7201,-0.7201,-0.722,-0.7221,-0.7223,0,0,0,0,0,0,-0.7455,-0.7423,-0.7415,-0.7401,-0.7383,-0.7354,-0.7348,-0.7337,-0.7318,-0.7317,-0.7293,-0.7287,-0.727,-0.7255,-0.7258,-0.7231,-0.7225,-0.7223,-0.7241,-0.7243,-0.7244,-0.7248,-0.7242,0,0,0,0,0,-0.7459,-0.7445,-0.7418,-0.7408,-0.7399,-0.7376,-0.7366,-0.7352,-0.7332,-0.7324,-0.7303,-0.7283,-0.7264,-0.7252,-0.7234,-0.7218,-0.721,-0.7212,-0.7213,-0.7214,-0.7214,-0.7202,-0.7202,-0.72,-0.72,-0.72,0,0,-0.7466,-0.7447,-0.744,-0.7412,-0.7396,-0.7382,-0.7369,-0.7354,-0.7343,-0.7321,-0.7302,-0.7286,-0.7261,-0.7244,-0.7235,-0.7231,-0.7212,-0.7214,-0.7215,-0.7214,-0.7202,-0.7202,-0.7203,-0.72,-0.72,-0.72,0,0,-0.7471,-0.7456,-0.7446,-0.743,-0.7406,-0.739,-0.7388,-0.736,-0.7349,-0.733,-0.7313,-0.7297,-0.7266,-0.7249,-0.7236,-0.7233,-0.722,-0.7227,-0.7233,-0.7222,-0.7223,-0.7223,-0.722,-0.722,-0.7226,-0.7226,-0.7226,0,-0.7483,-0.7461,-0.7442,-0.7428,-0.7415,-0.7395,-0.7384,-0.7369,-0.734,-0.7331,-0.7327,-0.7287,-0.7268,-0.7246,-0.7245,-0.7235,-0.723,-0.7231,-0.7224,-0.7224,-0.7224,-0.7222,-0.7221,-0.7227,-0.7227,-0.7227,-0.7227,0,-0.7476,-0.7461,-0.7455,-0.7429,-0.7416,-0.7403,-0.738,-0.7368,-0.7355,-0.7339,-0.7318,-0.7296,-0.7272,-0.7265,-0.7252,-0.7239,-0.7238,-0.7229,-0.7223,-0.7226,-0.7223,-0.7222,-0.7229,-0.7228,-0.7228,-0.7228,0,0,-0.7496,-0.7458,-0.7456,-0.7443,-0.7414,-0.7402,-0.7387,-0.7364,-0.7354,-0.7334,-0.732,-0.7293,-0.7285,-0.727,-0.7255,-0.7246,-0.7243,-0.7238,-0.7237,-0.7239,-0.7226,-0.7232,-0.7232,-0.7234,-0.7234,-0.7234,-0.7228,0,-0.7497,-0.7472,-0.7452,-0.7433,-0.7418,-0.7398,-0.7385,-0.7365,-0.7349,-0.7332,-0.7313,-0.7295,-0.7286,-0.7276,-0.7266,-0.7246,-0.724,-0.7246,-0.7219,-0.7219,-0.7227,-0.723,-0.7237,-0.7233,-0.7227,-0.7226,-0.7226,0,-0.7495,-0.7477,-0.7457,-0.7428,-0.7421,-0.741,-0.7387,-0.7372,-0.7348,-0.7336,-0.7319,-0.7303,-0.7284,-0.7279,-0.7252,-0.7256,-0.7244,-0.7232,-0.7231,-0.7228,-0.7223,-0.7227,-0.7231,-0.723,-0.7224,-0.7225,-0.7225,0,-0.7511,-0.7481,-0.7465,-0.7454,-0.7421,-0.7413,-0.7399,-0.7375,-0.7362,-0.734,-0.7331,-0.7308,-0.7295,-0.7276,-0.7253,-0.7251,-0.7228,-0.7221,-0.7216,-0.7217,-0.7213,-0.7213,-0.7215,-0.7205,-0.7205,-0.7205,-0.7205,0,-0.7515,-0.7503,-0.7471,-0.7461,-0.7447,-0.7424,-0.7409,-0.7393,-0.7371,-0.7356,-0.7336,-0.7322,-0.7293,-0.7275,-0.7256,-0.7236,-0.723,-0.7219,-0.7214,-0.7221,-0.7222,-0.7213,-0.7212,-0.7205,-0.7205,-0.7205,-0.7205,0,-0.753,-0.7509,-0.749,-0.746,-0.7452,-0.7442,-0.7415,-0.7404,-0.7386,-0.7367,-0.7361,-0.7332,-0.7309,-0.7284,-0.7253,-0.724,-0.7221,-0.7214,-0.7229,-0.7227,-0.7224,-0.7224,-0.7219,-0.7217,-0.7209,-0.7209,-0.7209,0,-0.7534,-0.7525,-0.7493,-0.7483,-0.7469,-0.7451,-0.7438,-0.7414,-0.74,-0.7371,-0.7362,-0.7338,-0.7318,-0.7282,-0.7257,-0.7232,-0.7225,-0.7224,-0.7221,-0.7227,-0.7224,-0.7225,-0.7223,-0.7226,-0.7226,-0.7226,-0.7226,0,-0.7543,-0.7532,-0.7515,-0.7492,-0.7477,-0.7458,-0.7438,-0.743,-0.7401,-0.7387,-0.7364,-0.7348,-0.7315,-0.7291,-0.7263,-0.7246,-0.7231,-0.7228,-0.7225,-0.7232,-0.7241,-0.7235,-0.7232,-0.7228,-0.7228,-0.7228,-0.7228,-0.7227,-0.7552,-0.7542,-0.7519,-0.7499,-0.7481,-0.7463,-0.745,-0.743,-0.7411,-0.7384,-0.737,-0.7347,-0.732,-0.7281,-0.7264,-0.7244,-0.724,-0.7237,-0.7236,-0.7235,-0.7236,-0.7244,-0.7239,-0.7239,-0.7239,-0.7239,-0.7239,0,-0.7559,-0.7543,-0.7525,-0.7498,-0.7482,-0.747,-0.7446,-0.7433,-0.7414,-0.7391,-0.7371,-0.7343,-0.7319,-0.7292,-0.7265,-0.7254,-0.7246,-0.7248,-0.7248,-0.7244,-0.7242,-0.7247,-0.7255,-0.7255,-0.7255,-0.7255,-0.7255,-0.7255,-0.7561,-0.7544,-0.753,-0.7503,-0.7485,-0.7464,-0.7451,-0.7433,-0.7415,-0.7385,-0.7365,-0.7348,-0.7323,-0.7294,-0.727,-0.7262,-0.7253,-0.7257,-0.7247,-0.7246,-0.7245,-0.7243,-0.7248,-0.7255,-0.7255,-0.725,-0.725,-0.725]},{"header":{"parameterUnit":"m.s-1","parameterCategory":1,"la1":30.2991,"la2":30.254,"lo1":-89.0895,"lo2":-89.0444,"dy":0.0017,"dx":0.0017,"nx":28,"ny":28,"refTime":"2023-11-08T09:00:00:Z","depth":0,"parameterNumber":3,"parameterNumberName":"V-component_of_WINDS"},"data":[0,0,0,0,0,0,0,0,0,0,0,0,0,0,0,0,0,0,0,0,0,0,0,0,0,0,0,0,0,0,0,0,0,0,0,0,0,0,0,0,0,0,0,0,0,0,0,0,0,0,0,0,0,0,0,0,0,0,-0.7046,-0.7046,0,-0.7005,-0.7004,-0.7004,-0.7002,-0.7003,-0.7003,-0.7004,-0.6957,-0.6955,-0.6953,0,0,0,0,0,0,0,0,0,0,0,0,0,-0.7119,-0.7118,-0.7046,-0.7046,-0.7045,-0.7005,-0.7004,-0.7004,-0.7002,-0.7003,-0.7003,-0.7004,-0.6957,-0.6955,-0.6953,0,0,0,0,0,0,0,0,0,0,0,0,0,-0.7083,-0.7117,-0.7047,-0.704,-0.7039,-0.7005,-0.7004,-0.7003,-0.7002,-0.7003,-0.7003,-0.7004,-0.6958,-0.6955,-0.6953,-0.6922,0,0,-0.6945,-0.6944,0,0,0,0,0,0,0,0,-0.7085,-0.7081,-0.7041,-0.704,-0.7039,-0.701,-0.7013,-0.6976,-0.7002,-0.7016,-0.7004,-0.7004,-0.6973,-0.697,-0.696,-0.6919,-0.6917,-0.6945,-0.6943,-0.6942,-0.6941,0,0,0,0,0,0,0,-0.7088,-0.7082,-0.703,-0.7041,-0.7039,-0.7037,-0.7033,-0.7006,-0.6991,-0.7015,-0.7014,-0.701,-0.6973,-0.6962,-0.6959,-0.6917,-0.6945,-0.6942,-0.6941,-0.694,-0.6845,-0.6844,0,0,0,0,0,0,-0.7092,-0.7084,-0.7031,-0.7029,-0.7065,-0.7035,-0.703,-0.7018,-0.6991,-0.6988,-0.7009,-0.701,-0.6966,-0.6962,-0.6957,-0.6917,-0.6942,-0.694,-0.6938,-0.6846,-0.6845,-0.6844,0,0,0,0,0,0,-0.7094,-0.7088,-0.7033,-0.7056,-0.7049,-0.7033,-0.7019,-0.7017,-0.7007,-0.6987,-0.6984,-0.7002,-0.6967,-0.6961,-0.693,-0.6915,-0.6938,-0.6936,-0.6847,-0.6845,-0.6844,-0.6837,0,0,0,0,0,0,-0.7096,-0.7088,-0.7078,-0.7056,-0.7048,-0.7008,-0.7018,-0.7016,-0.7003,-0.7003,-0.6979,-0.6976,-0.6967,-0.6934,-0.6927,-0.6912,-0.6934,-0.6848,-0.6846,-0.6845,-0.6838,-0.6835,-0.6833,0,0,0,0,0,-0.7099,-0.7077,-0.7077,-0.7071,-0.7035,-0.7008,-0.7003,-0.6994,-0.7002,-0.699,-0.6976,-0.6976,-0.6918,-0.6931,-0.6923,-0.6907,-0.6849,-0.6847,-0.6845,-0.6839,-0.6836,-0.6833,0,0,0,0,0,0,-0.7096,-0.7074,-0.7074,-0.7046,-0.7028,-0.7007,-0.6992,-0.6991,-0.6971,-0.6972,-0.6961,-0.6955,-0.6924,-0.6913,-0.6927,-0.6873,-0.6884,-0.688,-0.6882,-0.6879,-0.6876,-0.6879,-0.6932,0,0,0,0,0,-0.7093,-0.7074,-0.7055,-0.7031,-0.7023,-0.7009,-0.6997,-0.6992,-0.6973,-0.6965,-0.695,-0.6931,-0.6907,-0.6893,-0.6871,-0.6837,-0.683,-0.6821,-0.6818,-0.6816,-0.6813,-0.6791,-0.6786,-0.6836,-0.6836,-0.6836,0,0,-0.7085,-0.707,-0.7059,-0.703,-0.7017,-0.6995,-0.7003,-0.6981,-0.6964,-0.6962,-0.6932,-0.6919,-0.6897,-0.6863,-0.6848,-0.6853,-0.6797,-0.6813,-0.6812,-0.6809,-0.6788,-0.6783,-0.6779,-0.6835,-0.6835,-0.6835,0,0,-0.7059,-0.7047,-0.7025,-0.7011,-0.699,-0.6981,-0.6975,-0.6954,-0.6946,-0.6915,-0.6912,-0.6891,-0.6853,-0.6836,-0.6822,-0.6787,-0.6785,-0.678,-0.6765,-0.6744,-0.674,-0.6736,-0.6721,-0.6716,-0.6777,-0.6777,-0.6777,0,-0.7051,-0.7021,-0.7013,-0.6991,-0.6977,-0.6974,-0.695,-0.6936,-0.6909,-0.6898,-0.6904,-0.6854,-0.6839,-0.68,-0.6791,-0.6781,-0.6772,-0.6783,-0.6741,-0.6737,-0.6734,-0.6719,-0.6714,-0.6776,-0.6776,-0.6776,-0.6776,0,-0.7011,-0.6989,-0.6974,-0.6948,-0.6932,-0.6909,-0.6896,-0.6881,-0.6876,-0.6865,-0.6833,-0.6814,-0.6787,-0.6777,-0.6773,-0.6737,-0.674,-0.6744,-0.6754,-0.6729,-0.6715,-0.6709,-0.6775,-0.6775,-0.6776,-0.6776,0,0,-0.6984,-0.6953,-0.6947,-0.6934,-0.691,-0.6892,-0.6867,-0.6841,-0.6827,-0.6808,-0.6785,-0.6751,-0.6753,-0.6737,-0.6731,-0.6712,-0.6682,-0.6717,-0.6717,-0.671,-0.6638,-0.6635,-0.6629,-0.6681,-0.668,-0.6679,-0.6639,0,-0.6954,-0.6912,-0.6903,-0.6865,-0.6844,-0.684,-0.6818,-0.6799,-0.6787,-0.6766,-0.6752,-0.6728,-0.6734,-0.6724,-0.6705,-0.669,-0.6667,-0.6693,-0.6657,-0.6656,-0.6662,-0.6622,-0.6619,-0.6582,-0.6634,-0.6633,-0.6633,0,-0.6914,-0.6894,-0.6854,-0.683,-0.6821,-0.6802,-0.6776,-0.6756,-0.6733,-0.6726,-0.6707,-0.6702,-0.6673,-0.6685,-0.6643,-0.666,-0.6645,-0.6635,-0.6633,-0.6628,-0.6642,-0.6614,-0.6571,-0.6565,-0.6625,-0.6625,-0.6626,0,-0.6896,-0.6858,-0.6829,-0.6818,-0.679,-0.6776,-0.6764,-0.6742,-0.6726,-0.6703,-0.6692,-0.6665,-0.665,-0.6628,-0.6614,-0.6625,-0.6573,-0.6584,-0.6563,-0.6564,-0.6552,-0.6553,-0.6504,-0.6545,-0.6545,-0.6545,-0.6545,0,-0.6863,-0.6838,-0.682,-0.6802,-0.6773,-0.6763,-0.6734,-0.6721,-0.6701,-0.6678,-0.6673,-0.6651,-0.6635,-0.661,-0.6599,-0.6564,-0.6558,-0.6549,-0.6546,-0.6549,-0.655,-0.6538,-0.654,-0.6544,-0.6544,-0.6544,-0.6544,0,-0.6838,-0.6825,-0.6792,-0.6768,-0.6761,-0.6741,-0.6719,-0.67,-0.6687,-0.6659,-0.6651,-0.6631,-0.6601,-0.6586,-0.6549,-0.6541,-0.6501,-0.6501,-0.6509,-0.6508,-0.6487,-0.6489,-0.6427,-0.6418,-0.6467,-0.6466,-0.6466,0,-0.6817,-0.6798,-0.6771,-0.6756,-0.6743,-0.6719,-0.6703,-0.6691,-0.6673,-0.6644,-0.6628,-0.6598,-0.6574,-0.6526,-0.6506,-0.6477,-0.6474,-0.6455,-0.647,-0.6472,-0.6471,-0.6472,-0.6469,-0.6452,-0.6451,-0.6451,-0.6451,0,-0.6781,-0.6775,-0.6753,-0.6727,-0.6708,-0.6687,-0.6666,-0.6653,-0.6637,-0.6617,-0.6587,-0.6568,-0.6529,-0.6498,-0.6467,-0.6451,-0.6447,-0.6446,-0.6439,-0.6441,-0.6446,-0.6441,-0.65,-0.6448,-0.6448,-0.6448,-0.6448,-0.6448,-0.6756,-0.6738,-0.6716,-0.669,-0.6673,-0.6653,-0.6633,-0.6618,-0.6593,-0.6561,-0.6555,-0.6522,-0.6497,-0.6454,-0.6437,-0.641,-0.6414,-0.6404,-0.6402,-0.6399,-0.6397,-0.6452,-0.6404,-0.6404,-0.6404,-0.6404,-0.6405,0,-0.6718,-0.6703,-0.668,-0.6651,-0.6629,-0.6629,-0.6604,-0.6586,-0.6558,-0.6535,-0.6511,-0.6475,-0.6444,-0.6422,-0.639,-0.6372,-0.6369,-0.6364,-0.6364,-0.636,-0.6397,-0.6405,-0.6366,-0.6366,-0.6366,-0.6366,-0.6366,-0.6366,-0.6696,-0.6664,-0.6655,-0.6614,-0.6599,-0.6568,-0.6554,-0.6534,-0.6515,-0.6475,-0.645,-0.6436,-0.6413,-0.6379,-0.6349,-0.6343,-0.6331,-0.6325,-0.6319,-0.6354,-0.6358,-0.6361,-0.6369,-0.6323,-0.6323,-0.6284,-0.6283,-0.6283]}]]